Location: Roland
(31.1349°N, 85.4372°W)
Time: 15:59:30
(UTC+00:00)

SR - Visible Passes

Search period start: 11 April 2021 00:00
Search period end: 21 April 2021 00:00
Orbit: 573 x 882 km, 66.7° (Epoch: 11 April)

Date Brightness Start Highest point End Pass type
(mag) Time Alt. Az. Time Alt. Az. Time Alt. Az.
11 Apr ? 01:07:34 10° NNW 01:13:11 59° WSW 01:18:22 10° S visible
12 Apr ? 02:02:29 10° WNW 02:04:45 13° WSW 02:06:59 10° SW visible
13 Apr ? 01:10:39 10° NW 01:15:25 29° WSW 01:19:54 10° SSW visible
15 Apr ? 01:14:50 10° WNW 01:17:30 14° WSW 01:20:04 10° SW visible
